Wind_Speed
13 9 18 21 21 28 27 30 29 39 46 38 32 32 32 34 42 47 46 46 51 50 45 40 38 38 39 36 34 35 37 37 38 41 41 40 40 40 39 36 33 27 25 47 42 29 31 27 32 33 32 31 29 29
9 14 16 18 20 28 29 28 34 37 34 27 32 35 36 43 40 35 38 42 45 55 49 45 39 36 34 32 32 33 30 30 32 33 39 37 36 34 34 32 27 41 40 38 33 30 29 29 31 31 29 29 27 22
11 14 15 13 21 24 22 23 24 32 35 31 30 34 37 38 33 33 37 36 40 43 46 42 35 36 38 37 30 21 22 28 26 23 23 26 29 27 36 23 26 27 35 32 30 29 29 31 33 32 30 28 22 19
7 11 13 16 25 24 26 27 27 29 39 45 43 40 41 34 41 34 34 35 35 35 35 34 35 34 30 34 31 27 25 25 26 25 25 23 27 24 24 25 19 16 19 21 24 28 31 32 31 30 29 25 22 20
20 19 18 21 26 27 25 23 23 16 17 22 29 34 40 39 35 33 32 29 28 26 25 27 26 23 26 28 26 25 22 22 18 17 18 13 18 20 22 22 20 23 21 23 23 25 25 25 25 24 25 23 24 20
8 14 9 10 17 19 21 25 17 16 15 15 21 26 31 35 33 30 29 29 28 26 26 20 18 22 24 28 27 25 24 16 19 13 23 13 19 17 19 14 15 19 22 23 21 19 21 24 21 22 22 20 19 19
8 3 6 11 16 23 30 25 21 20 17 20 25 31 33 33 30 28 27 29 33 26 15 6 14 11 22 26 27 30 18 16 18 15 25 24 20 18 18 18 21 23 24 21 19 19 18 19 19 19 15 17 19 19
11 5 8 9 13 23 27 26 21 24 22 24 26 31 36 39 39 37 36 28 21 19 11 7 4 12 20 19 19 18 17 19 23 19 17 17 17 17 18 20 21 20 18 19 20 19 16 15 16 17 18 19 19 18
3 9 13 21 23 27 24 25 33 36 38 40 43 41 37 39 35 29 28 23 15 16 8 8 17 24 20 20 20 20 23 17 17 17 17 17 19 20 19 20 19 16 16 15 16 14 13 14 17 18 19 19 19 18
21 26 32 35 35 44 47 49 43 39 36 39 37 33 29 28 28 26 20 21 18 13 12 18 17 19 18 22 16 18 19 20 19 15 16 15 17 17 18 18 17 17 16 14 13 15 15 14 15 17 18 20 20 20
42 47 48 47 48 48 47 45 43 40 36 33 32 30 27 28 26 21 18 23 22 19 18 15 12 12 16 17 16 15 15 14 14 13 12 13 14 14 15 16 14 13 12 12 12 14 15 15 17 17 19 20 21 22
31 31 31 34 34 35 36 34 31 28 27 27 26 25 26 24 29 27 25 21 19 16 13 10 9 10 12 14 14 17 17 15 15 12 11 11 9 11 11 12 12 12 13 15 16 17 18 19 20 21 22 22 23 24
22 23 25 25 26 27 27 23 18 18 20 24 26 24 26 23 19 19 18 16 14 12 10 9 10 12 14 14 14 16 15 13 12 11 10 12 11 11 12 12 14 15 17 19 21 23 24 24 25 26 27 29 29 29
20 18 18 18 17 17 19 16 14 24 24 28 27 31 28 22 15 13 14 14 13 11 12 13 13 14 15 15 14 12 11 11 10 10 8 8 9 10 11 10 9 10 12 16 18 18 19 20 22 25 27 29 31 34
15 16 19 19 19 17 15 15 18 24 24 27 24 24 19 16 16 14 13 14 13 12 13 15 15 17 15 14 12 11 9 8 7 7 7 7 8 7 6 6 6 7 11 15 14 14 17 22 26 30 31 32 33 34
8 12 14 16 17 18 18 19 26 25 24 23 19 16 16 12 12 13 13 13 14 16 16 16 15 13 11 10 10 8 7 6 6 5 6 6 6 4 4 5 5 9 13 15 15 10 12 16 14 7 8 18 21 24
4 12 14 15 19 21 20 27 26 23 21 20 18 15 12 10 8 11 13 15 17 18 17 15 14 13 11 11 9 8 7 5 6 6 6 8 6 3 5 6 8 11 13 12 8 6 9 11 9 5 3 5 12 19
8 12 15 17 20 22 22 25 24 23 22 20 17 15 13 11 10 13 17 18 17 16 16 15 14 12 11 9 8 7 6 7 6 6 9 9 6 4 6 7 8 10 10 8 2 3 7 6 4 2 3 4 7 11
12 13 17 17 19 20 21 21 20 20 20 20 18 15 15 11 13 15 17 16 14 12 11 11 11 12 10 8 6 6 7 7 6 7 9 9 8 6 8 7 7 8 8 7 7 7 9 9 7 5 4 6 7 10
13 14 15 15 15 16 17 18 20 20 18 17 17 16 15 13 16 15 13 13 12 11 10 12 12 10 9 7 5 5 5 5 6 7 8 7 7 7 7 5 5 7 7 7 8 9 7 7 8 8 8 9 9 12
9 12 12 12 14 16 18 18 18 17 16 17 17 16 15 16 15 13 14 12 11 12 12 12 10 10 8 6 5 4 4 5 6 8 8 6 6 5 6 6 6 7 8 8 8 10 10 9 9 8 9 10 12 12
6 7 8 8 11 13 15 16 16 16 14 14 15 16 16 14 13 13 13 12 12 12 12 12 12 11 8 5 3 4 5 6 9 10 9 9 8 8 8 7 7 7 8 10 11 11 12 12 11 10 9 10 12 14
3 4 5 6 8 10 11 13 14 14 13 12 13 14 14 13 12 12 12 12 13 13 13 12 13 12 9 6 4 3 3 4 7 10 10 11 10 9 9 9 9 8 8 8 8 8 9 9 8 9 11 11 11 11
1 4 7 9 10 10 10 10 11 12 13 14 14 14 15 13 12 12 12 12 13 13 13 13 14 14 13 10 8 7 6 5 6 7 11 14 15 16 15 14 14 12 11 10 10 9 9 9 9 9 10 9 10 11
5 4 5 8 10 12 15 16 15 14 14 15 16 16 16 15 14 13 12 12 13 13 13 13 14 14 14 14 13 12 12 11 11 11 12 14 15 17 18 19 19 19 18 17 16 16 15 14 14 13 13 12 11 11
10 9 8 7 9 11 12 13 14 16 17 16 16 16 16 16 15 15 14 14 14 14 14 15 15 14 15 15 15 15 15 15 15 16 17 18 19 20 21 23 24 25 25 24 23 22 22 21 20 19 17 16 15 15
16 15 13 12 11 11 12 12 13 14 15 15 17 17 17 17 16 15 16 16 16 16 15 15 15 15 15 15 15 16 16 17 18 19 20 21 22 23 24 25 26 27 28 29 29 29 27 26 24 23 22 21 20 20
18 18 18 17 15 14 14 16 15 14 15 16 18 19 18 17 17 19 19 18 18 17 17 17 16 16 16 17 18 18 19 19 20 21 22 23 24 24 25 26 26 26 25 25 26 27 29 28 26 24 24 23 23 23
13 14 16 18 18 18 17 17 18 18 17 17 18 18 18 18 19 19 19 18 19 18 18 17 17 17 17 18 18 19 19 20 21 22 22 23 23 23 23 24 24 23 23 22 22 21 20 21 22 22 22 22 23 23
15 14 14 15 18 19 20 20 21 21 21 21 20 20 20 20 20 20 20 19 19 19 19 19 19 19 19 19 20 20 20 21 21 20 19 19 18 18 17 18 18 16 15 15 16 16 16 16 18 18 18 18 19 20
17 19 18 17 17 19 21 21 22 23 25 25 24 23 22 22 22 22 22 22 22 22 22 22 22 22 22 22 22 22 22 21 19 18 16 15 13 12 11 12 12 13 13 12 12 12 14 16 17 18 19 20 23 24
18 19 20 21 21 21 20 21 22 22 23 25 26 26 26 25 25 25 25 25 24 25 25 25 25 25 24 24 23 23 22 20 19 18 16 15 13 11 10 10 10 11 11 12 13 16 18 19 21 22 23 24 26 27
20 20 20 21 23 25 26 25 24 24 25 25 26 26 27 27 27 27 28 28 27 27 27 27 27 26 26 25 25 24 23 21 20 18 18 17 16 15 14 14 15 16 18 19 20 20 20 20 21 20 21 21 22 24
Wind_Direction
284 203 196 200 191 191 188 188 176 195 198 209 204 214 212 220 225 226 231 223 212 210 213 222 224 228 230 230 233 230 227 230 230 233 237 239 242 244 248 251 252 214 225 238 252 265 267 265 266 272 277 273 271 266
224 200 192 184 192 201 205 193 194 187 192 200 206 210 211 215 219 216 211 217 214 210 216 218 221 225 224 221 223 219 223 226 232 241 247 247 251 255 249 246 254 242 258 266 264 269 269 265 265 269 272 267 263 261
209 196 195 188 196 204 207 208 218 222 223 215 208 213 218 222 217 205 212 220 213 211 214 218 218 223 218 213 201 200 232 228 222 238 234 242 240 232 231 254 248 241 251 262 259 257 260 263 263 264 263 259 250 256
164 184 188 185 194 193 207 220 215 229 234 235 233 233 218 218 209 205 209 216 208 206 207 206 206 209 206 197 197 207 212 218 215 225 234 242 232 232 240 246 238 245 239 250 254 258 256 256 257 257 256 252 247 258
129 128 137 155 169 181 180 187 193 194 202 206 212 214 215 216 198 197 203 202 190 187 184 185 184 189 208 202 204 204 204 207 221 227 221 201 241 258 267 264 241 231 250 262 266 262 258 257 257 253 249 247 252 245
168 179 191 194 197 199 186 160 167 168 161 167 175 180 185 186 183 185 179 173 170 163 153 165 188 198 197 204 206 202 202 209 227 224 202 240 222 246 231 242 238 242 256 264 261 253 257 257 252 248 245 234 229 234
76 126 161 175 167 164 156 156 140 134 132 141 153 157 158 160 160 152 140 148 151 150 152 176 196 195 194 189 202 204 211 213 202 230 218 231 233 237 241 249 254 261 263 251 244 256 266 249 240 233 225 231 227 226
102 98 166 180 152 161 156 147 139 142 147 141 145 143 139 137 139 134 134 129 140 142 182 199 190 183 171 183 192 199 203 207 207 213 223 229 240 248 254 260 263 250 241 243 251 260 250 233 229 230 226 222 225 228
357 343 143 147 147 151 154 151 141 132 129 129 132 133 135 133 131 130 140 137 145 161 218 180 174 164 163 183 194 185 182 199 216 220 236 248 255 258 254 250 239 245 252 257 245 236 243 240 237 236 227 228 228 230
92 100 117 125 130 128 127 126 127 126 131 131 135 132 134 132 133 139 141 157 172 191 165 148 150 164 187 203 191 177 185 194 208 236 254 255 252 248 237 228 235 249 252 244 230 235 241 238 236 233 232 230 231 237
106 108 114 118 120 124 125 126 128 129 129 132 138 138 136 140 144 140 164 169 169 153 155 155 156 164 168 176 194 208 217 225 236 244 241 232 227 223 221 225 229 241 243 244 242 243 243 243 241 240 238 238 238 236
106 111 111 118 122 124 129 129 128 128 130 134 140 140 139 145 157 170 168 169 175 180 184 193 204 209 204 206 213 213 216 219 217 219 208 191 202 206 212 220 233 245 254 259 260 259 258 255 251 249 247 245 242 240
123 120 123 123 125 125 125 128 137 139 149 153 143 136 150 165 174 181 179 174 180 193 211 226 226 218 206 201 198 199 197 192 192 192 190 202 211 224 233 242 253 260 263 265 266 267 265 262 258 254 249 246 244 241
142 138 138 134 133 132 131 133 134 144 146 146 153 166 165 168 180 174 169 186 193 214 223 217 197 189 185 176 178 179 188 188 191 192 200 211 228 241 250 252 256 273 286 293 289 278 268 264 264 263 260 254 247 240
144 162 169 169 170 172 175 177 159 158 155 164 159 166 181 169 168 176 187 197 208 212 193 178 177 174 177 178 176 170 173 180 191 202 217 243 248 235 236 260 276 309 324 332 315 294 290 289 286 278 263 248 237 234
129 160 169 174 178 177 180 168 162 160 162 162 164 168 166 161 166 182 194 199 190 183 170 172 174 175 175 177 179 180 189 192 203 243 253 229 199 212 281 277 288 313 317 324 322 327 357 352 340 329 270 231 223 227
116 151 158 159 153 155 165 167 166 166 166 169 180 178 177 176 184 183 176 171 169 168 171 177 178 179 180 180 188 195 200 214 262 257 220 191 198 259 317 298 286 304 317 323 318 20 11 6 4 313 254 212 225 227
151 159 162 155 154 154 156 165 172 176 181 186 184 176 179 181 172 170 170 163 166 173 181 187 190 188 186 188 194 203 229 262 256 220 193 197 222 276 321 314 293 303 312 317 211 354 347 329 339 301 267 248 256 232
151 160 163 160 166 165 166 166 175 178 181 183 180 186 188 185 172 170 171 173 176 179 185 188 189 185 188 189 202 239 255 247 230 204 201 214 234 280 311 309 302 306 307 305 261 270 308 316 301 285 262 248 234 217
159 155 156 157 165 171 176 179 180 182 183 184 186 189 193 191 184 182 185 190 195 198 196 192 187 189 190 203 239 251 247 233 215 202 206 222 244 277 296 309 292 293 294 297 297 291 299 299 283 276 269 262 252 242
148 154 159 165 172 172 168 168 169 171 175 180 187 190 193 189 191 198 193 200 208 206 204 195 193 192 204 229 245 247 242 231 216 208 207 225 248 275 301 304 312 305 290 290 291 299 299 299 295 285 275 267 262 261
131 152 163 168 178 182 182 177 173 178 188 191 192 193 194 199 203 206 211 218 214 208 202 203 201 202 208 221 239 251 247 243 229 222 228 242 258 272 282 295 311 307 296 300 303 301 298 288 288 285 282 278 271 263
156 173 182 183 185 192 196 198 205 208 205 203 203 207 205 203 206 210 213 214 212 207 211 215 212 212 220 222 223 239 256 265 251 243 244 250 257 262 269 283 296 302 299 303 305 303 301 303 303 284 276 278 281 282
327 221 215 217 215 210 204 205 207 208 207 212 214 214 210 212 214 217 216 215 215 216 222 226 225 225 229 232 236 241 250 259 265 264 258 256 259 263 265 268 274 280 283 284 285 289 292 299 306 310 309 301 291 286
304 299 254 236 230 230 229 227 224 221 220 221 221 220 218 219 221 217 217 221 225 229 232 234 235 236 238 242 246 249 251 254 259 263 265 268 269 268 268 266 266 269 271 274 274 277 279 281 286 291 294 298 297 293
272 268 267 261 244 239 235 232 231 232 229 230 226 224 225 225 227 226 228 231 234 237 239 240 241 242 244 247 249 252 256 260 263 267 269 271 272 274 274 274 271 268 268 269 271 272 273 274 277 280 279 281 285 288
272 266 262 257 255 245 238 238 236 234 230 225 224 227 229 231 232 233 237 239 241 242 243 244 245 247 248 251 255 258 262 266 269 272 273 274 275 275 276 277 276 274 272 269 267 267 268 270 272 275 277 278 278 281
268 268 261 258 255 249 245 239 238 237 234 232 234 236 237 237 235 236 238 239 241 243 243 244 246 249 253 257 262 266 271 274 277 279 281 281 281 282 282 282 281 279 278 277 274 272 267 268 272 275 275 276 279 283
272 264 260 252 250 250 249 246 240 238 237 238 239 240 239 238 238 240 240 240 242 244 246 248 251 255 260 266 271 276 277 279 280 281 281 283 285 286 286 285 284 282 279 275 274 274 271 268 270 274 279 279 280 283
263 266 265 260 252 247 246 247 244 242 240 240 240 240 239 240 240 241 242 243 245 247 250 254 259 264 269 272 275 276 277 280 282 283 284 286 289 292 294 295 294 292 287 282 278 275 269 265 268 273 279 280 283 284
263 261 260 261 258 253 249 246 245 244 243 243 243 243 243 244 245 247 249 251 254 257 259 262 266 269 270 271 272 274 275 277 277 276 276 278 282 289 296 299 299 292 284 287 286 280 280 280 281 279 278 280 281 283
267 263 259 253 251 252 253 251 251 250 249 247 247 248 250 251 251 252 253 255 256 258 260 263 266 268 270 271 271 271 270 268 268 267 265 264 267 273 285 295 305 309 311 309 299 291 288 288 288 287 287 287 287 286
264 266 264 259 255 252 252 253 252 251 251 250 249 249 250 251 252 254 255 256 258 261 263 266 267 267 266 264 264 262 261 260 259 259 255 254 258 265 273 279 287 293 296 297 295 294 293 293 292 294 296 297 299 301
Height
5278 5278 5281 5286 5292 5297 5304 5311 5317 5325 5334 5340 5345 5354 5361 5369 5378 5385 5391 5396 5402 5410 5418 5424 5432 5440 5447 5454 5461 5467 5470 5473 5478 5481 5485 5488 5492 5496 5498 5503 5507 5510 5510 5514 5514 5513 5519 5524 5524 5524 5524 5523 5523 5524
5275 5277 5280 5285 5289 5296 5302 5308 5315 5322 5330 5337 5344 5351 5358 5366 5371 5378 5384 5389 5394 5402 5409 5417 5425 5433 5440 5446 5451 5456 5463 5468 5472 5475 5478 5481 5485 5488 5493 5495 5496 5498 5501 5504 5508 5511 5512 5514 5514 5515 5515 5516 5516 5517
5273 5276 5280 5284 5289 5295 5302 5309 5315 5321 5328 5334 5340 5347 5354 5360 5366 5373 5378 5381 5387 5394 5403 5411 5420 5426 5431 5439 5445 5452 5457 5462 5467 5471 5472 5474 5477 5481 5483 5487 5489 5493 5496 5496 5498 5502 5503 5503 5505 5506 5507 5508 5510 5510
5273 5276 5279 5283 5289 5296 5301 5307 5315 5319 5324 5328 5333 5340 5348 5355 5362 5368 5374 5377 5383 5391 5398 5408 5414 5419 5427 5433 5440 5447 5452 5456 5460 5464 5466 5469 5472 5477 5480 5482 5483 5486 5488 5491 5493 5495 5494 5495 5496 5497 5499 5501 5503 5504
5280 5282 5285 5288 5292 5297 5303 5308 5313 5316 5317 5320 5325 5331 5341 5351 5359 5365 5369 5376 5384 5392 5399 5405 5412 5420 5425 5431 5437 5443 5448 5452 5456 5458 5461 5465 5469 5472 5474 5475 5477 5481 5484 5485 5485 5485 5486 5487 5488 5490 5493 5495 5497 5499
5284 5286 5288 5290 5294 5297 5302 5308 5311 5314 5317 5319 5324 5330 5339 5348 5356 5362 5369 5377 5384 5392 5400 5406 5413 5418 5423 5428 5434 5440 5444 5447 5451 5455 5458 5460 5464 5468 5470 5472 5474 5476 5478 5478 5479 5479 5480 5481 5482 5484 5486 5488 5491 5494
5287 5287 5288 5290 5293 5297 5302 5307 5312 5316 5319 5323 5327 5333 5340 5348 5357 5367 5375 5381 5389 5396 5401 5407 5412 5415 5419 5424 5430 5435 5441 5446 5449 5451 5456 5458 5462 5463 5466 5467 5468 5470 5471 5472 5474 5474 5475 5475 5477 5479 5482 5484 5486 5489
5288 5289 5289 5291 5294 5299 5305 5310 5315 5320 5325 5328 5333 5340 5347 5355 5362 5371 5379 5387 5392 5397 5402 5407 5411 5414 5418 5423 5429 5435 5439 5442 5446 5451 5454 5456 5457 5459 5460 5461 5462 5464 5466 5467 5468 5470 5471 5472 5473 5476 5478 5480 5483 5485
5290 5285 5285 5290 5297 5303 5309 5314 5319 5326 5331 5337 5343 5349 5355 5362 5370 5379 5385 5391 5397 5402 5405 5407 5412 5416 5419 5424 5429 5434 5437 5441 5445 5448 5450 5452 5452 5453 5455 5456 5459 5461 5462 5463 5464 5466 5467 5468 5470 5472 5474 5476 5478 5481
5293 5291 5292 5298 5304 5310 5316 5322 5327 5334 5340 5347 5353 5358 5364 5370 5376 5382 5389 5394 5399 5405 5406 5409 5413 5417 5422 5425 5429 5433 5436 5439 5442 5445 5445 5446 5447 5449 5451 5453 5456 5457 5458 5459 5461 5462 5464 5465 5466 5468 5470 5472 5474 5477
5309 5309 5311 5316 5320 5325 5329 5334 5339 5344 5349 5354 5360 5365 5371 5376 5381 5387 5392 5396 5400 5404 5407 5411 5415 5418 5422 5425 5428 5431 5434 5436 5438 5441 5442 5443 5444 5446 5448 5450 5452 5454 5455 5456 5458 5459 5460 5462 5463 5464 5466 5468 5470 5472
5325 5327 5329 5331 5334 5338 5342 5345 5349 5354 5359 5363 5368 5372 5376 5381 5385 5390 5394 5398 5402 5405 5409 5412 5415 5418 5420 5423 5426 5429 5431 5434 5436 5438 5439 5441 5443 5444 5446 5448 5450 5451 5452 5453 5454 5455 5456 5457 5458 5459 5461 5462 5464 5466
5335 5337 5340 5342 5345 5348 5351 5355 5357 5361 5364 5368 5372 5377 5381 5386 5389 5392 5396 5400 5403 5406 5408 5411 5414 5416 5418 5422 5424 5427 5429 5432 5434 5436 5438 5440 5442 5443 5445 5446 5447 5447 5448 5447 5447 5447 5448 5448 5449 5451 5452 5454 5456 5458
5343 5345 5347 5349 5352 5355 5358 5361 5363 5366 5370 5374 5378 5382 5386 5389 5392 5395 5398 5400 5403 5405 5407 5410 5412 5416 5418 5421 5423 5426 5429 5431 5433 5435 5437 5438 5439 5440 5441 5442 5442 5442 5442 5441 5440 5439 5439 5440 5440 5441 5442 5443 5445 5448
5347 5349 5352 5354 5357 5359 5362 5364 5367 5371 5374 5378 5382 5386 5389 5392 5395 5397 5399 5401 5404 5406 5408 5410 5413 5416 5418 5421 5423 5426 5428 5430 5432 5433 5435 5436 5436 5437 5437 5438 5439 5439 5438 5436 5434 5433 5432 5431 5429 5428 5427 5429 5432 5436
5350 5352 5353 5355 5358 5361 5364 5367 5371 5374 5378 5382 5386 5389 5392 5394 5396 5398 5400 5402 5404 5406 5408 5411 5414 5417 5419 5421 5423 5426 5428 5429 5431 5431 5432 5432 5434 5435 5435 5435 5435 5435 5435 5433 5431 5430 5427 5424 5421 5418 5417 5419 5424 5428
5353 5354 5355 5357 5360 5363 5366 5371 5374 5378 5381 5385 5388 5390 5393 5395 5396 5397 5399 5401 5403 5406 5409 5412 5414 5417 5419 5421 5423 5424 5426 5427 5428 5428 5429 5430 5432 5433 5433 5433 5433 5433 5432 5431 5429 5428 5427 5425 5423 5420 5420 5420 5423 5425
5354 5356 5357 5360 5363 5366 5370 5373 5377 5380 5383 5386 5389 5391 5393 5395 5396 5397 5399 5401 5404 5407 5409 5411 5414 5416 5418 5420 5422 5423 5424 5425 5425 5426 5427 5429 5430 5431 5431 5431 5430 5430 5429 5428 5428 5427 5426 5425 5423 5422 5421 5421 5422 5423
5357 5358 5360 5362 5365 5368 5371 5374 5378 5380 5383 5386 5389 5391 5393 5395 5396 5398 5401 5403 5405 5407 5410 5411 5413 5415 5417 5419 5420 5421 5422 5422 5423 5424 5425 5427 5428 5429 5429 5428 5428 5427 5427 5426 5426 5426 5425 5424 5423 5422 5421 5421 5422 5423
5360 5361 5363 5365 5368 5370 5373 5376 5378 5381 5383 5387 5389 5391 5393 5395 5397 5399 5401 5403 5405 5407 5409 5411 5412 5415 5416 5418 5419 5419 5419 5420 5421 5422 5423 5424 5426 5426 5426 5426 5426 5425 5425 5424 5424 5423 5423 5422 5421 5420 5420 5420 5421 5422
5364 5364 5366 5367 5369 5372 5375 5377 5380 5383 5385 5387 5389 5391 5393 5395 5397 5399 5400 5402 5404 5406 5408 5410 5412 5413 5415 5416 5416 5416 5417 5418 5419 5420 5422 5423 5424 5424 5424 5424 5424 5423 5423 5422 5422 5421 5420 5419 5419 5418 5418 5418 5418 5418
5367 5368 5369 5370 5372 5374 5377 5379 5381 5382 5385 5386 5388 5390 5392 5394 5396 5398 5399 5401 5403 5405 5407 5408 5410 5412 5413 5414 5414 5415 5415 5416 5417 5418 5419 5420 5421 5422 5421 5421 5421 5420 5420 5419 5419 5418 5417 5416 5416 5415 5415 5414 5414 5414
5369 5370 5371 5372 5373 5375 5377 5378 5380 5382 5384 5386 5388 5390 5391 5393 5395 5396 5397 5399 5401 5403 5404 5406 5408 5410 5411 5412 5413 5413 5414 5414 5415 5416 5417 5417 5418 5418 5418 5418 5418 5418 5417 5417 5416 5415 5414 5414 5412 5412 5411 5410 5410 5410
5370 5370 5371 5372 5373 5375 5376 5377 5379 5380 5382 5384 5386 5388 5389 5391 5393 5394 5395 5397 5399 5400 5402 5404 5405 5407 5408 5409 5410 5411 5411 5412 5412 5413 5413 5414 5414 5415 5415 5415 5414 5414 5414 5414 5414 5413 5412 5411 5410 5409 5408 5407 5406 5405
5371 5371 5371 5371 5371 5373 5374 5375 5377 5378 5380 5381 5383 5385 5386 5388 5390 5391 5393 5395 5396 5398 5399 5400 5402 5403 5404 5405 5406 5407 5408 5408 5409 5409 5410 5410 5409 5409 5409 5409 5409 5409 5409 5409 5409 5409 5408 5408 5407 5406 5405 5404 5403 5401
5368 5368 5369 5368 5369 5370 5370 5372 5373 5374 5376 5378 5379 5381 5383 5385 5387 5389 5390 5391 5393 5394 5395 5396 5397 5399 5400 5401 5402 5403 5403 5404 5404 5405 5405 5405 5404 5404 5403 5403 5403 5403 5402 5403 5402 5402 5402 5402 5401 5401 5400 5399 5398 5397
5364 5364 5364 5365 5366 5366 5367 5368 5369 5371 5372 5374 5375 5377 5379 5381 5383 5385 5386 5387 5388 5390 5391 5392 5393 5394 5395 5396 5397 5397 5398 5399 5399 5399 5399 5398 5398 5397 5397 5396 5395 5395 5394 5394 5394 5394 5394 5394 5394 5394 5393 5393 5392 5391
5358 5358 5359 5361 5361 5362 5363 5364 5366 5367 5368 5370 5371 5373 5375 5377 5379 5379 5381 5382 5383 5385 5386 5387 5388 5389 5390 5391 5391 5392 5392 5392 5392 5392 5391 5391 5390 5389 5388 5387 5386 5385 5385 5384 5384 5384 5384 5385 5385 5386 5385 5385 5384 5384
5353 5353 5354 5354 5356 5357 5358 5360 5361 5362 5364 5365 5367 5368 5370 5372 5373 5374 5376 5377 5378 5379 5381 5382 5383 5383 5384 5385 5385 5385 5385 5385 5385 5385 5384 5383 5382 5382 5380 5379 5377 5377 5376 5376 5376 5376 5376 5376 5377 5377 5377 5377 5376 5376
5349 5349 5349 5349 5349 5350 5352 5353 5355 5356 5358 5359 5361 5363 5364 5366 5367 5368 5370 5371 5372 5373 5374 5375 5376 5377 5377 5378 5378 5378 5379 5378 5378 5378 5377 5376 5375 5374 5373 5372 5371 5370 5370 5369 5369 5369 5369 5370 5370 5370 5370 5370 5369 5368
5342 5342 5343 5343 5344 5344 5345 5346 5348 5349 5351 5353 5354 5356 5357 5359 5360 5362 5363 5364 5365 5366 5367 5368 5369 5370 5370 5371 5371 5371 5371 5371 5371 5371 5371 5371 5370 5370 5369 5368 5367 5366 5366 5365 5365 5365 5365 5364 5364 5364 5363 5363 5362 5361
5335 5335 5336 5336 5337 5338 5339 5340 5341 5342 5343 5345 5346 5348 5350 5351 5353 5354 5355 5356 5357 5358 5359 5360 5361 5362 5362 5362 5363 5363 5363 5364 5364 5364 5364 5365 5365 5365 5364 5364 5364 5363 5362 5361 5361 5360 5359 5359 5358 5357 5356 5355 5353 5352
5328 5328 5328 5329 5329 5330 5331 5333 5334 5335 5336 5337 5338 5340 5341 5343 5344 5346 5346 5347 5348 5349 5350 5351 5352 5353 5353 5354 5354 5354 5355 5356 5357 5357 5358 5358 5359 5359 5359 5359 5359 5358 5357 5356 5356 5355 5354 5352 5351 5350 5348 5347 5345 5343